Kapuskasing, Ontario

3:41 PM EST on December 03, 2016 (GMT -0500)
Kapuskasing

Weather History for CYYU - May, 2013

Change the Weather History Date:

Tuesday, May 28, 2013

  Actual Average Record
Temperature  
Mean Temperature 58 °F -  
Max Temperature 77 °F 60 °F 84 °F (2006)
Min Temperature 40 °F 36 °F 31 °F (2015)
Degree Days  
Heating Degree Days 6    
Growing Degree Days 8 (Base 50)    
Moisture  
Dew Point 34 °F    
Average Humidity 35    
Maximum Humidity 61    
Minimum Humidity 12    
Precipitation  
Precipitation 0.00 in - - ()
Sea Level Pressure  
Sea Level Pressure 29.96 in    
Wind  
Wind Speed 5 mph ()    
Max Wind Speed 14 mph    
Max Gust Speed 21 mph    
Visibility 14.8 miles    
Events      
Averages and records for this station are not official NWS values.
T = Trace of Precipitation, MM = Missing Value Source: Averaged Metar Reports

Daily Weather History Graph

Daily Weather History Graph

Search for Another Location

Airport or City:

Trip Planner

Search our weather history database for the weather conditions in past years. The results will help you decide how hot, cold, wet, or windy it might be!

Date:

Astronomy

May. 28, 2013 Rise Set
Actual Time 5:31 AM EDT 9:23 PM EDT
Civil Twilight 4:50 AM EDT 10:05 PM EDT
Nautical Twilight 3:53 AM EDT 11:02 PM EDT
Astronomical Twilight 2:23 AM EDT 12:34 AM EDT
Moon No Moon Rise 9:27 AM EDT (5/28)
Length of Visible Light 17h 14m
Length of Day
15h 52m
Waning Gibbous, 83% of the Moon is Illuminated
May 28
Waning Gibbous
May 31
Last Quarter
Jun 8
New
Jun 16
First Quarter
Jun 23
Full

Hourly Weather History & Observations

Time (EDT) Temp. Windchill Dew Point Humidity Pressure Visibility Wind Dir Wind Speed Gust Speed Precip Events Conditions
12:00 AM 53.6 °F - 32.0 °F 44% 30.06 in 15.0 mi East 4.6 mph - N/A   Partly Cloudy
1:00 AM 51.8 °F - 30.2 °F 44% 30.07 in 15.0 mi East 3.5 mph - N/A   Clear
2:00 AM 49 °F - 31 °F 38% 30.06 in 15 mi Calm Calm - -  
2:00 AM 50.0 °F - 32.0 °F 50% 30.06 in 15.0 mi Calm Calm - N/A   Clear
3:00 AM 44.6 °F 42.2 °F 32.0 °F 61% 30.04 in 15.0 mi ESE 4.6 mph - N/A   Partly Cloudy
4:00 AM 42.8 °F 40.1 °F 30.2 °F 61% 30.03 in 15.0 mi ESE 4.6 mph - N/A   Scattered Clouds
5:00 AM 46.4 °F 44.3 °F 26.6 °F 46% 30.03 in 12.0 mi ESE 4.6 mph - N/A   Scattered Clouds
6:00 AM 42.8 °F 41.1 °F 30.2 °F 61% 30.04 in 12.0 mi SSE 3.5 mph - N/A   Mostly Cloudy
7:00 AM 48.2 °F - 33.8 °F 58% 30.04 in 15.0 mi South 3.5 mph - N/A   Mostly Cloudy
8:00 AM 55 °F - 35 °F 34% 30.04 in 15 mi SSW 3.5 mph - -   Clear
8:00 AM 55.4 °F - 35.6 °F 47% 30.04 in 15.0 mi SSW 3.5 mph - N/A   Partly Cloudy
9:00 AM 62.6 °F - 35.6 °F 37% 30.04 in 15.0 mi SSW 8.1 mph - N/A   Partly Cloudy
10:00 AM 68.0 °F - 35.6 °F 30% 30.05 in 15.0 mi South 2.3 mph - N/A   Partly Cloudy
11:00 AM 71.6 °F - 37.4 °F 29% 30.00 in 15.0 mi ESE 4.6 mph - N/A   Partly Cloudy
12:00 PM 73.4 °F - 35.6 °F 25% 29.97 in 15.0 mi SSE 11.5 mph - N/A   Partly Cloudy
1:00 PM 75.2 °F - 33.8 °F 22% 29.95 in 15.0 mi SSE 13.8 mph - N/A   Partly Cloudy
2:00 PM 76 °F - 34 °F 12% 29.93 in 15 mi SSE 12.7 mph - -   Clear
2:00 PM 75.2 °F - 33.8 °F 22% 29.93 in 15.0 mi SSE 12.7 mph - N/A   Partly Cloudy
3:00 PM 77.0 °F - 30.2 °F 18% 29.91 in 15.0 mi SSE 11.5 mph 17.3 mph N/A   Partly Cloudy
4:00 PM 77.0 °F - 30.2 °F 18% 29.89 in 15.0 mi SE 12.7 mph - N/A   Partly Cloudy
5:00 PM 77.0 °F - 32.0 °F 19% 29.87 in 15.0 mi SE 13.8 mph 20.7 mph N/A   Partly Cloudy
6:00 PM 77.0 °F - 33.8 °F 21% 29.84 in 15.0 mi SE 12.7 mph 18.4 mph N/A   Partly Cloudy
7:00 PM 77.0 °F - 35.6 °F 22% 29.83 in 15.0 mi SE 12.7 mph - N/A   Partly Cloudy
8:00 PM 74 °F - 41 °F 19% 29.82 in 15 mi SE 9.2 mph - -   Scattered Clouds
8:00 PM 73.4 °F - 41.0 °F 31% 29.82 in 15.0 mi SE 9.2 mph - N/A   Partly Cloudy
9:00 PM 68.0 °F - 41.0 °F 37% 29.81 in 15.0 mi ESE 5.8 mph - N/A   Scattered Clouds
10:00 PM 64.4 °F - 37.4 °F 37% 29.82 in 15.0 mi SSE 5.8 mph - N/A   Partly Cloudy
11:00 PM 62.6 °F - 35.6 °F 37% 29.83 in 15.0 mi SSE 5.8 mph - N/A   Partly Cloudy